This demonstration page uses our WeatherBlox Daily Observations layout. Learn more.

Left ArrowRight Arrow

41.55636, -103.73856

Hourly Observations for July 17, 2020

Temp ( °F °C ) Dew Point ( °F °C ) Humidity (%) Winds ( mph kmh ) Pressure ( in mb ) Visibility ( mi km ) Precip ( " mm )
6:58 pm 18:58 Clear 89 31.4 42 5.7 20 20 ENE 8 13 29.89 1012 10 16 0.00 0.00
7:58 pm 19:58 Clear 82 28 44 6.7 26 26 ESE 9 15 29.89 1012 10 16 0.00 0.00
8:58 pm 20:58 Mostly Cloudy 81 27.1 41 4.9 24 24 SW 13 20 29.93 1014 10 16 0.00 0.00
9:58 pm 21:58 Mostly Cloudy 82 27.9 41 5 23 23 SSW 9 15 29.73 1007 10 16 0.00 0.00
10:58 pm 22:58 Mostly Cloudy 85 29.6 33 0.7 15 15 SSW 35 56 29.66 1004 10 16 0.00 0.00
11:58 pm 23:58 Mostly Cloudy 83 28.4 38 3.6 20 20 SW 21 33 29.69 1005 10 16 0.00 0.00
12:58 am 00:58 Mostly Cloudy 78 25.7 42 5.4 27 27 SW 20 31 29.86 1011 10 16 0.00 0.00
1:58 am 01:58 Mostly Cloudy 74 23.5 43 6.1 33 33 SSW 20 31 29.85 1011 10 16 0.00 0.00
2:58 am 02:58 Clear 72 22.2 44 6.5 36 36 SSW 21 33 29.85 1011 10 16 0.00 0.00
3:58 am 03:58 Mostly Clear 71 21.4 44 6.9 39 39 W 5 7 29.86 1011 10 16 0.00 0.00
4:58 am 04:58 Partly Cloudy 69 20.7 45 7.4 42 42 SSW 12 19 29.87 1012 10 16 0.00 0.00
5:58 am 05:58 Sunny 67 19.2 46 7.5 47 47 SW 9 15 29.89 1012 10 16 0.00 0.00
6:58 am 06:58 Sunny 69 20.6 46 7.5 43 43 W 5 7 29.90 1013 10 16 0.00 0.00
7:58 am 07:58 Sunny 77 24.8 45 7.1 32 32 WNW 6 9 29.90 1013 10 16 0.00 0.00
8:58 am 08:58 Sunny 81 27.4 44 6.9 27 27 Calm 29.91 1013 10 16 0.00 0.00
9:58 am 09:58 Sunny 87 30.8 36 2.3 16 16 WNW 15 24 29.89 1012 10 16 0.00 0.00
10:58 am 10:58 Mostly Cloudy 87 30.4 38 3.1 17 17 WNW 13 20 29.89 1012 10 16 0.00 0.00
11:58 am 11:58 Sunny 91 32.8 35 1.4 13 13 NW 3 6 29.87 1012 10 16 0.00 0.00
12:58 pm 12:58 Mostly Sunny 93 33.7 35 1.7 13 13 W 5 7 29.85 1011 10 16 0.00 0.00
1:58 pm 13:58 Sunny 96 35.3 32 0 10 10 Calm 29.83 1010 10 16 0.00 0.00
2:58 pm 14:58 Sunny 97 36.3 31 -0.4 10 10 NW 10 17 29.81 1009 10 16 0.00 0.00
3:58 pm 15:58 Sunny 97 36.2 29 -1.5 9 9 SW 3 6 29.79 1009 10 16 0.00 0.00
4:58 pm 16:58 Sunny 97 36.2 29 -1.6 9 9 NE 3 6 29.78 1009 10 16 0.00 0.00
5:58 pm 17:58 Sunny 95 35 31 -0.4 10 10 SW 5 7 29.78 1009 10 16 0.00 0.00

Powered by AerisWeather